Deer Park, WA
on Sunday, January 27, 2013

Sunday
Previous Day Next Day
Daily Summary
 ActualAverageRecord
Temperature
Mean Temperature °F 29°F  
Max Temperature 30°F 35°F 43°F (2003)
Min Temperature 26°F 22°F 6°F (2009)
Degree Days
Heating Degree Days 37 36  
Month to date heating degree days 1174 1025  
Since 1 July heating degree days 3967 4252  
Cooling Degree Days 0 0  
Month to date cooling degree days 0 0  
Year to date cooling degree days 0 0  
Moisture
Dew Point 26°F   
Average Humidity 93    
Maximum Humidity 100    
Minimum Humidity 85    
Precipitation
Precipitation 0.04 in 0.06 in 0.51 in (2008)
Month to date precipitation 1.31 2.37  
Year to date precipitation 1.31 2.37  
Wind
Wind Speed 5 mph   
Max Wind Speed 10 mph   
Max Gust Speed 14 mph   
Visibility 6 miles   
Events Snow   

Key: T is trace of precipitation, MM is missing value
Source: NWS Daily Summary
Time(PST)TemperatureDew PointHumidity Pressure Visibility Wind DirectionWind SpeedGust SpeedPrecipitationEvents Conditions
12:03 AM 30.2°F 28.4°F 93% 29.92 in 1.2 miles SW 5.8 mph - 0.00 in Snow Light Snow
12:53 AM 28.9°F 28.9°F 100% 29.99 in 1.8 miles SW 5.8 mph - 0.01 in Snow Light Snow
1:09 AM 28.4°F 28.4°F 100% 29.92 in 2.0 miles SW 5.8 mph - 0.00 in Snow Light Snow
1:14 AM 28.4°F 28.4°F 100% 29.92 in 2.0 miles SW 4.6 mph - 0.00 in Snow Light Snow
1:23 AM 28.4°F 28.4°F 100% 29.92 in 1.5 miles SSW 4.6 mph - 0.01 in Snow Light Snow
1:31 AM 28.4°F 28.4°F 100% 29.92 in 1.8 miles SW 4.6 mph - 0.01 in Snow Light Snow
1:42 AM 28.4°F 28.4°F 100% 29.92 in 1.8 miles WSW 3.5 mph - 0.01 in Snow Light Snow
1:49 AM 28.4°F 28.4°F 100% 29.92 in 2.5 miles WSW 4.6 mph - 0.01 in Snow Light Snow
1:53 AM 28.9°F 28.9°F 100% 29.99 in 3.0 miles SW 5.8 mph - 0.01 in Snow Light Snow
2:18 AM 30.2°F 28.4°F 93% 29.92 in 2.5 miles SW 5.8 mph - 0.00 in Snow Light Snow
2:53 AM 30.0°F 28.0°F 92% 29.99 in 2.5 miles SSW 8.1 mph - 0.00 in Snow Light Snow
3:01 AM 28.4°F 28.4°F 100% 29.92 in 4.0 miles SSW 5.8 mph - 0.00 in   Overcast
3:11 AM 28.4°F 28.4°F 100% 29.92 in 10.0 miles SSW 6.9 mph - 0.00 in   Overcast
3:28 AM 28.4°F 26.6°F 93% 29.92 in 7.0 miles SW 6.9 mph - 0.00 in   Overcast
3:53 AM 28.0°F 27.0°F 96% 29.99 in 6.0 miles SW 5.8 mph - 0.00 in   Overcast
4:04 AM 28.4°F 26.6°F 93% 29.93 in 5.0 miles SW 6.9 mph - 0.00 in Snow Light Snow
4:53 AM 28.0°F 26.1°F 92% 29.99 in 5.0 miles SSW 10.4 mph - 0.00 in   Overcast
5:02 AM 28.4°F 26.6°F 93% 29.93 in 5.0 miles SSW 8.1 mph - N/A   Overcast
5:33 AM 28.4°F 26.6°F 93% 29.93 in 1.8 miles SW 9.2 mph - 0.00 in Snow Light Snow
5:40 AM 26.6°F 24.8°F 93% 29.93 in 2.0 miles SW 10.4 mph - 0.00 in Snow Light Snow
5:53 AM 27.0°F 25.0°F 92% 30.00 in 3.0 miles SW 10.4 mph - 0.00 in   Overcast
6:31 AM 26.6°F 24.8°F 93% 29.95 in 7.0 miles SW 10.4 mph - 0.00 in Snow Light Snow
6:53 AM 26.1°F 24.1°F 92% 30.01 in 4.0 miles SW 8.1 mph - 0.00 in Snow Light Snow
7:19 AM 26.6°F 24.8°F 93% 29.95 in 3.0 miles SW 5.8 mph - 0.00 in Snow Light Snow
7:22 AM 26.6°F 24.8°F 93% 29.95 in 2.5 miles SW 5.8 mph - 0.00 in Snow Light Snow
7:38 AM 26.6°F 24.8°F 93% 29.95 in 1.8 miles SW 8.1 mph - 0.00 in Snow Light Snow
7:46 AM 26.6°F 24.8°F 93% 29.95 in 2.5 miles SW 9.2 mph - 0.00 in Snow Light Snow
7:53 AM 26.1°F 24.1°F 92% 30.02 in 6.0 miles WSW 8.1 mph - 0.00 in   Overcast
8:39 AM 26.6°F 24.8°F 93% 29.96 in 10.0 miles SSW 6.9 mph - N/A   Overcast
8:53 AM 26.1°F 25.0°F 96% 30.03 in 10.0 miles SW 4.6 mph - N/A   Overcast
9:06 AM 26.6°F 24.8°F 93% 29.97 in 10.0 miles SW 5.8 mph - N/A   Overcast
9:53 AM 26.1°F 25.0°F 96% 30.04 in 10.0 miles SW 4.6 mph - N/A   Overcast
10:53 AM 27.0°F 26.1°F 96% 30.04 in 10.0 miles SW 4.6 mph - N/A   Overcast
11:07 AM 26.6°F 26.6°F 100% 29.97 in 10.0 miles SW 3.5 mph - N/A   Overcast
11:27 AM 28.4°F 24.8°F 86% 29.97 in 10.0 miles SW 4.6 mph - N/A   Overcast
11:53 AM 28.0°F 25.0°F 88% 30.03 in 10.0 miles SSW 5.8 mph - N/A   Overcast
12:53 PM 28.0°F 25.0°F 88% 30.02 in 10.0 miles WSW 5.8 mph - N/A   Overcast
1:09 PM 28.4°F 24.8°F 86% 29.95 in 10.0 miles WSW 5.8 mph - N/A   Overcast
1:53 PM 28.0°F 26.1°F 92% 30.00 in 10.0 miles Calm Calm - N/A   Overcast
2:09 PM 28.4°F 24.8°F 86% 29.93 in 10.0 miles South 4.6 mph - N/A   Overcast
2:53 PM 28.9°F 26.1°F 89% 30.00 in 10.0 miles SW 4.6 mph - N/A   Overcast
3:02 PM 28.4°F 26.6°F 93% 29.93 in 10.0 miles SW 4.6 mph - N/A   Overcast
3:53 PM 28.9°F 26.1°F 89% 30.00 in 10.0 miles Calm Calm - N/A   Overcast
4:53 PM 28.9°F 26.1°F 89% 30.01 in 10.0 miles SW 8.1 mph - N/A   Overcast
5:49 PM 28.4°F 26.6°F 93% 29.94 in 10.0 miles West 4.6 mph - N/A   Overcast
5:53 PM 28.9°F 26.1°F 89% 30.01 in 10.0 miles West 3.5 mph - N/A   Overcast
6:41 PM 28.4°F 26.6°F 93% 29.93 in 10.0 miles WSW 3.5 mph - N/A   Overcast
6:53 PM 28.0°F 27.0°F 96% 30.01 in 10.0 miles West 4.6 mph - N/A   Overcast
7:53 PM 28.0°F 26.1°F 92% 30.01 in 10.0 miles Calm Calm - N/A   Overcast
8:26 PM 28.4°F 26.6°F 93% 29.93 in 10.0 miles Calm Calm - N/A   Overcast
8:53 PM 28.0°F 26.1°F 92% 30.01 in 10.0 miles Calm Calm - N/A   Overcast
9:53 PM 28.0°F 27.0°F 96% 30.01 in 9.0 miles Calm Calm - N/A   Overcast
10:26 PM 28.4°F 26.6°F 93% 29.92 in 3.0 miles Calm Calm - 0.00 in Snow Light Snow
10:53 PM 28.0°F 27.0°F 96% 29.99 in 4.0 miles Calm Calm - 0.00 in Snow Light Snow
11:01 PM 28.4°F 26.6°F 93% 29.92 in 3.0 miles Calm Calm - 0.00 in Snow Light Snow
11:08 PM 28.4°F 26.6°F 93% 29.92 in 2.0 miles Calm Calm - 0.00 in Snow Light Snow
11:35 PM 28.4°F 26.6°F 93% 29.91 in 1.5 miles Calm Calm - 0.01 in Snow Light Snow
11:53 PM 28.0°F 27.0°F 96% 29.98 in 1.2 miles Calm Calm - 0.01 in Snow Light Snow
Moon Phase
Jan. 27 Feb. 03 Feb. 10 Feb. 17 Feb. 25
Sunrise:07:23 AM (PST) Moon Rise:05:50 PM (PST)1/27
Sunset:04:42 PM (PST) Moon Set:07:11 AM (PST)1/27

Copyright © 2014 The Weather Underground, Inc.